CW6467 Weather Reports


Display with metric or nautical units.
time (UTC)temp
F
wind
direction
speed
MPH
gust
MPH
rain 1hr
in
rain 24hr
in
rain mn
in
humidity
%
barometer
mb
20211027192811 57 81 2.0 7.0 0.00 0.00 0.00 51 980.0
20211027185811 57 234 4.0 8.0 0.00 0.00 0.00 56 980.5
20211027182812 56 45 3.0 11.0 0.00 0.00 0.00 56 981.2
20211027175811 54 50 1.0 9.0 0.00 0.00 0.00 62 981.7
20211027172811 54 313 6.0 11.0 0.00 0.00 0.00 61 982.2
20211027165811 53 245 1.0 10.0 0.00 0.00 0.00 66 983.0
20211027162811 51 46 6.0 6.0 0.00 0.00 0.00 72 983.8
20211027155811 48 26 2.0 8.0 0.00 0.00 0.00 82 984.1
20211027152811 45 138 2.0 11.0 0.00 0.00 0.00 94 984.2
20211027145812 44 137 0.0 6.0 0.00 0.00 0.00 99 984.5
20211027142812 42 242 4.0 4.0 0.00 0.00 0.00 99 984.9
20211027135812 40 34 1.0 2.0 0.00 0.00 0.00 99 985.0
20211027132812 37 46 0.0 0.0 0.00 0.00 0.00 98 985.0
20211027125811 37 59 1.0 3.0 0.00 0.00 0.00 98 984.9
20211027122812 35 59 1.0 2.0 0.00 0.00 0.00 98 984.8
20211027115812 34 59 1.0 2.0 0.00 0.00 0.00 97 984.7
20211027112812 35 59 0.0 2.0 0.00 0.00 0.00 97 984.5
20211027105811 35 59 0.0 2.0 0.00 0.00 0.00 97 984.8
20211027102811 35 59 0.0 0.0 0.00 0.00 0.00 96 984.4
20211027095811 36 59 0.0 2.0 0.00 0.00 0.00 96 983.7
20211027092811 36 59 0.0 1.0 0.00 0.00 0.00 96 983.9
20211027085811 36 59 1.0 2.0 0.00 0.00 0.00 96 983.8
20211027082812 36 59 0.0 1.0 0.00 0.00 0.00 96 984.0
20211027075812 37 59 0.0 1.0 0.00 0.00 0.00 95 984.1
20211027072812 36 60 0.0 3.0 0.00 0.00 0.00 95 984.2
20211027065812 36 51 1.0 1.0 0.00 0.00 0.00 95 984.3
20211027062812 37 51 0.0 0.0 0.00 0.00 0.00 94 984.5
20211027055811 37 51 0.0 1.0 0.00 0.00 0.00 94 984.6
20211027052812 38 51 0.0 1.0 0.00 0.00 0.00 94 984.6
20211027045812 38 51 0.0 1.0 0.00 0.00 0.00 94 984.5
20211027042812 39 51 0.0 0.0 0.00 0.00 0.00 93 984.5
20211027035812 39 51 0.0 1.0 0.00 0.00 0.00 92 985.0
20211027032812 40 51 0.0 1.0 0.00 0.00 0.00 92 985.2
20211027025812 41 51 0.0 0.0 0.00 0.00 0.00 91 985.5
20211027022812 42 51 0.0 1.0 0.00 0.00 0.00 90 985.5
20211027015812 43 38 0.0 2.0 0.00 0.00 0.00 88 985.4
20211027012812 44 47 0.0 3.0 0.00 0.00 0.00 87 984.9
20211027005812 43 299 0.0 2.0 0.00 0.00 0.00 85 985.4
20211027002812 44 61 0.0 1.0 0.00 0.00 0.00 80 985.3
20211026235812 45 61 0.0 1.0 0.00 0.00 0.00 76 985.1
20211026232812 48 61 0.0 0.0 0.00 0.00 0.00 71 984.8
20211026225812 51 61 0.0 0.0 0.00 0.00 0.00 62 984.7
20211026222812 53 61 0.0 2.0 0.00 0.00 0.00 54 984.7
20211026215812 56 62 0.0 2.0 0.00 0.00 0.00 49 984.7
20211026212812 58 51 0.0 3.0 0.00 0.00 0.00 46 985.1
20211026205812 58 61 2.0 3.0 0.00 0.00 0.00 43 985.5
20211026202812 58 195 3.0 4.0 0.00 0.00 0.00 41 985.5
20211026195812 57 61 3.0 8.0 0.00 0.00 0.00 44 985.4